This is the latest recevied weather packets stored in our database for station/object YN1ZSC-13. If no packets are shown the sender has not sent any weather packets the latest 10 day(s).
| Time | Temp. | Humidity | Pressure | Rain* | Wind** | Luminosity | Snow |
|---|---|---|---|---|---|---|---|
| 1778204306 | 30° C | 66% | 1010 hPa | 0 mm | - | - | - |
| 1778203705 | 30.56° C | 66% | 1009 hPa | 0 mm | - | - | - |
| 1778203105 | 30.56° C | 66% | 1009 hPa | 0 mm | - | - | - |
| 1778202504 | 27.78° C | 53% | 1009 hPa | 0 mm | - | - | - |
| 1778201903 | 28.33° C | 53% | 1009 hPa | 0 mm | - | - | - |
| 1778201303 | 28.33° C | 53% | 1009 hPa | 0 mm | - | - | - |
| 1778200702 | 28.33° C | 51% | 1009 hPa | 0 mm | - | - | - |
| 1778200102 | 28.89° C | 51% | 1008 hPa | 0 mm | - | - | - |
| 1778199501 | 28.89° C | 51% | 1008 hPa | 0 mm | - | - | - |
| 1778198900 | 29.44° C | 51% | 1008 hPa | 0 mm | - | - | - |
| 1778198300 | 30° C | 50% | 1008 hPa | 0 mm | - | - | - |
| 1778197699 | 30.56° C | 50% | 1008 hPa | 0 mm | - | - | - |
| 1778197099 | 31.11° C | 50% | 1008 hPa | 0 mm | - | - | - |
| 1778196498 | 31.67° C | 48% | 1008 hPa | 0 mm | - | - | - |
| 1778195897 | 32.22° C | 44% | 1008 hPa | 0 mm | - | - | - |
| 1778195297 | 32.78° C | 41% | 1008 hPa | 0 mm | - | - | - |
| 1778194697 | 33.33° C | 41% | 1008 hPa | 0 mm | - | - | - |
| 1778194096 | 33.89° C | 41% | 1008 hPa | 0 mm | - | - | - |
| 1778193495 | 34.44° C | 41% | 1008 hPa | 0 mm | - | - | - |
| 1778192895 | 35° C | 41% | 1008 hPa | 0 mm | - | - | - |
| 1778192294 | 30° C | 44% | 1008 hPa | 0 mm | - | - | - |
| 1778191694 | 30° C | 44% | 1008 hPa | 0 mm | - | - | - |
| 1778191093 | 30.56° C | 44% | 1008 hPa | 0 mm | - | - | - |
| 1778190493 | 31.11° C | 44% | 1008 hPa | 0 mm | - | - | - |
| 1778189892 | 31.11° C | 44% | 1008 hPa | 0 mm | - | - | - |
* Rain latest hour (hover to see other rain measurements)
** Current wind speed in m/s (hover to see current wind gust speed)